This is the latest recevied weather packets stored in our database for station/object KM6YFK-13. If no packets are shown the sender has not sent any weather packets the latest 10 day(s).
| Time | Temp. | Humidity | Pressure | Rain* | Wind** | Luminosity | Snow |
|---|---|---|---|---|---|---|---|
| 1777917508 | 25° C | 49% | 1017.6 hPa | 0 mm | - | 1022 W/m² | - |
| 1777917208 | 25° C | 48% | 1017.7 hPa | 0 mm | - | 1037 W/m² | - |
| 1777916908 | 25° C | 49% | 1017.8 hPa | 0 mm | - | 1046 W/m² | - |
| 1777916607 | 25° C | 47% | 1017.8 hPa | 0 mm | - | 1051 W/m² | - |
| 1777916308 | 25° C | 50% | 1017.8 hPa | 0 mm | - | 1054 W/m² | - |
| 1777916008 | 25° C | 49% | 1017.8 hPa | 0 mm | - | 1050 W/m² | - |
| 1777915708 | 25° C | 50% | 1017.8 hPa | 0 mm | - | 1038 W/m² | - |
| 1777915408 | 25° C | 51% | 1017.8 hPa | 0 mm | - | 1036 W/m² | - |
| 1777915108 | 25° C | 49% | 1017.8 hPa | 0 mm | - | 1034 W/m² | - |
| 1777914808 | 25° C | 49% | 1017.9 hPa | 0 mm | - | 1045 W/m² | - |
| 1777914507 | 25° C | 48% | 1017.8 hPa | 0 mm | - | 1044 W/m² | - |
| 1777914207 | 25° C | 50% | 1017.9 hPa | 0 mm | - | 1045 W/m² | - |
| 1777913908 | 25° C | 49% | 1017.9 hPa | 0 mm | - | 1019 W/m² | - |
| 1777913607 | 25° C | 48% | 1017.9 hPa | 0 mm | - | 1023 W/m² | - |
| 1777913308 | 25° C | 49% | 1017.9 hPa | 0 mm | - | 1015 W/m² | - |
| 1777913009 | 25° C | 49% | 1017.9 hPa | 0 mm | - | 1028 W/m² | - |
| 1777912708 | 24.44° C | 51% | 1017.9 hPa | 0 mm | - | 1033 W/m² | - |
| 1777912408 | 23.89° C | 51% | 1017.9 hPa | 0 mm | - | 1147 W/m² | - |
| 1777912107 | 24.44° C | 52% | 1018.1 hPa | 0 mm | - | 459 W/m² | - |
| 1777911808 | 24.44° C | 51% | 1018.3 hPa | 0 mm | - | 1058 W/m² | - |
| 1777911508 | 24.44° C | 52% | 1018.1 hPa | 0 mm | - | 1005 W/m² | - |
| 1777911208 | 24.44° C | 52% | 1018.1 hPa | 0 mm | - | 966 W/m² | - |
| 1777910908 | 24.44° C | 51% | 1018.1 hPa | 0 mm | - | 953 W/m² | - |
| 1777910608 | 24.44° C | 50% | 1018.2 hPa | 0 mm | - | 943 W/m² | - |
| 1777910308 | 24.44° C | 51% | 1018.3 hPa | 0 mm | - | 932 W/m² | - |
* Rain latest hour (hover to see other rain measurements)
** Current wind speed in m/s (hover to see current wind gust speed)